Flag for U.S.A. Weather past 2 weeks in Fort Myers, Florida, U.S.A.

Now
68 °F

Overcast.


Feels Like: 68 °F
Forecast: 63 / 78 °F
Wind: 8 mph from Northwest

Location: Page Field


UV Index: 7 (High)

Visibility: 10 mi


Pressure: 29.99 "Hg

Humidity: 70%

Dew point: 58 °F

Location of Fort MyersLocation

Historic Weather in Fort Myers

°F

Fort Myers temperature yesterday

Maximum temperature yesterday: 79 °F (at 2:53 PM)
Minimum temperature yesterday: 68 °F (at 9:53 PM)
Average temperature yesterday: 74 °F

Past Weeks' High & Low Weather Summary

 TemperatureHumidityPressure
High89 °F (Apr 7, 1:53 PM)100% (Apr 14, 6:53 AM)30.27 "Hg (Apr 14, 6:53 AM)
Low58 °F (Apr 10, 5:53 AM)31% (Apr 10, 1:53 PM)29.78 "Hg (Apr 8, 1:53 PM)
Average74 °F72%30.02 "Hg
* Reported Apr 4 10:53 PM — Apr 19 10:53 PM, Fort Myers, Weather by CustomWeather, © 2014

Note: Actual official high and low records may vary slightly from our data, if they occured in-between our weather recording intervals... More about our weather records

Advertising

Historic Weather Conditions — Data for Previous 24 hours

 ConditionsComfort  
Time TempWeatherWind HumidityBarometerVisibility
10:53 PM
Apr 19
68 °FOvercast.8 mph70%29.99 "Hg10 mi
9:53 PM68 °FMostly cloudy.12 mph70%29.99 "Hg10 mi
8:53 PM69 °FPassing clouds.14 mph68%29.97 "Hg10 mi
7:53 PM69 °FPartly sunny.16 mph68%29.97 "Hg10 mi
6:53 PM72 °FPartly sunny.17 mph61%29.96 "Hg10 mi
5:53 PM73 °FPartly sunny.15 mph62%29.94 "Hg10 mi
4:53 PM74 °FBroken clouds.18 mph60%29.94 "Hg10 mi
3:53 PM75 °FPartly sunny.17 mph60%29.94 "Hg10 mi
2:53 PM79 °FPartly sunny.17 mph52%29.95 "Hg10 mi
1:53 PM76 °FMostly cloudy.14 mph62%29.96 "Hg10 mi
12:53 PM77 °FMostly cloudy.15 mph58%29.96 "Hg10 mi
11:53 AM77 °FPartly sunny.12 mph62%29.97 "Hg10 mi
10:53 AM76 °FMostly cloudy.12 mph69%29.98 "Hg10 mi
9:53 AM77 °FBroken clouds.9 mph66%29.97 "Hg10 mi
8:53 AM75 °FScattered clouds.9 mph76%29.96 "Hg10 mi
7:53 AM73 °FPassing clouds.6 mph81%29.96 "Hg10 mi
6:53 AM74 °FOvercast.7 mph85%29.94 "Hg10 mi
5:53 AM73 °FPassing clouds.9 mph84%29.92 "Hg10 mi
4:53 AM75 °FPassing clouds.12 mph79%29.90 "Hg10 mi
3:53 AM75 °FPassing clouds.9 mph90%29.90 "Hg10 mi
2:53 AM76 °FThundershowers. Mostly cloudy.7 mph91%29.90 "Hg9 mi
1:53 AM75 °FOvercast.5 mph94%29.94 "Hg9 mi
12:53 AM75 °FPassing clouds.No wind94%29.96 "Hg9 mi
Weather by CustomWeather, © 2014

See weather overview